Weather in Starokucherganovka

Russia / Astrakhan Oblast     46°19′34″N   47°57′15″E
temp.,
°C
wind,
m/s
gust,
m/s
humid.,
%
clouds,
%
prec.,
mm/h
press.,
hPa
HPBL,
m
21 january, thu
thu2101:00−10wnw366926 0.0 1027331
04:00−11wnw367330 0.0 1027331
07:00−11wnw4768100 0.0 1028479
10:00−11wnw586883 0.0 1029519
13:00−9nw56540 0.0 1031576
16:00−8wnw56550 0.0 1030549
19:00−9wnw36670 0.0 1033272
22:00−10w23730 0.0 103294
22 january, fri
fri2201:00−9sw347161 0.0 1032130
04:00−8ssw366180 0.0 1031170
07:00−7ssw4866100 0.0 1030222
10:00−4sw71292100 0.1 1028393
13:00+1w81379100 0.3 1028555
16:00+2w61181100 0.3 1027620
19:00+1wsw498893 0.0 1027260
22:00+1wsw5108797 0.0 1028270
23 january, sat
sat2301:000w369366 0.0 1029152
04:00+1w359483 0.0 1028123
07:00+1w2394100 0.0 102952
10:00+1wsw1290100 0.0 103047
13:00+3s1279100 0.0 1030181
16:00+5se237073 0.0 1029403
19:00+2se348745 0.0 102963
22:00+1ese369173 0.0 1029109
24 january, sun
sun2401:000ese489051 0.0 1028156
04:00−1ese489133 0.0 1027164
07:00+2ese598599 0.0 1027254
10:00+2ese6138380 0.0 1027476
13:00+6se8116885 0.0 1027993
16:00+5se7116676 0.0 1026824
19:00+2se512770 0.0 1026375
22:000ese511771 0.0 1026261
25 january, mon
mon2501:000ese5117730 0.0 1025248
04:00−1ese5108040 0.0 1024204
07:00−1ese5127891 0.0 1024267
10:00+1se6127096 0.0 1025376
13:00+4se71165100 0.0 1024561
16:00+4se71164100 0.0 1023625
19:00+2ese5117099 0.0 1023348
22:00+1ese5126899 0.0 1023295